Погода в Онтарио

США     44°01′35″N   116°57′46″W
темп.,
°C
ветер,
м/с
пор.,
м/с
влажн.,
%
обл.,
%
осадки,
мм/ч
давл.,
гПа
погр.,
м
31 июля, сб
сб3123:00+27з3643100 0.0 1011140
02:00+27юв61243100 0.0 1013400
05:00+23вюв2256100 0.0 101415
08:00+29ююз123893 0.0 1015440
11:00+33ю773299 0.0 10141837
14:00+29ю234299 0.2 1015503
17:00+33ссв433116 0.2 10122021
20:00+26з355571 0.5 101290
1 августа, вс
вс123:00+21юз118199 1.9 101613
02:00+20ююв228719 0.6 101737
05:00+20в119363 2.9 101712
08:00+22юв0180100 0.9 1018274
11:00+28ю225593 0.9 10171142
14:00+32зюз233637 0.0 10152111
17:00+34ссз24285 0.0 10122492
20:00+30св33375 0.0 101232
2 августа, пн
пн223:00+27ссз224418 0.0 101413
02:00+24ссз335642 0.0 101533
05:00+22сз1161100 0.0 101511
08:00+26с2249100 0.0 1016309
11:00+30ссв1237100 0.0 10161120
14:00+33всв2428100 0.0 10141470
17:00+36св351681 0.0 10112380
20:00+29юв112793 0.0 101211
3 августа, вт
вт323:00+26зюз2229100 0.0 101312
02:00+24сз22320 0.0 101315
05:00+22сз22390 0.0 101511
08:00+27вюв22310 0.0 1015290
11:00+33вюв22220 0.0 10141128
14:00+38юз12150 0.0 10112577
17:00+39ююз14130 0.0 10093039
20:00+32вюв33181 0.0 100813
4 августа, ср
ср423:00+26ссз333120 0.0 101029
02:00+24ссз223927 0.0 101111
05:00+22сз11445 0.0 101111
08:00+28св11305 0.0 1012226
11:00+36вюв34140 0.0 10111074
14:00+42юв4480 0.0 10074585
17:00+40ююв569100 0.0 10041534
20:00+34зюз7111767 0.0 1004365